FW6587 Weather Reports


Display with metric or nautical units.
time (UTC)temp
F
wind
direction
speed
MPH
gust
MPH
rain 1hr
in
rain 24hr
in
rain mn
in
humidity
%
barometer
mb
20230129165047 5 341 0.0 2.0 0.00 0.00 0.00 82 1024.3
20230129164556 5 0 0.0 2.0 0.00 0.00 0.00 82 1024.4
20230129164043 5 350 0.0 2.0 0.00 0.00 0.00 82 1024.2
20230129163547 5 327 0.0 2.0 0.00 0.00 0.00 82 1024.2
20230129163055 5 0 0.0 3.0 0.00 0.00 0.00 82 1024.2
20230129162551 5 291 0.0 3.0 0.00 0.00 0.00 82 1024.2
20230129162047 5 0 0.0 2.0 0.00 0.00 0.00 82 1024.1
20230129161558 5 290 0.0 3.0 0.00 0.00 0.00 82 1024.1
20230129161051 5 0 0.0 3.0 0.00 0.00 0.00 82 1024.0
20230129160546 5 0 0.0 2.0 0.00 0.00 0.00 82 1024.0
20230129160054 5 12 0.0 2.0 0.00 0.00 0.00 82 1024.0
20230129155544 5 0 0.0 1.0 0.00 0.00 0.00 83 1024.0
20230129155046 5 0 0.0 1.0 0.00 0.00 0.00 82 1024.1
20230129154606 4 0 0.0 2.0 0.00 0.00 0.00 82 1024.1
20230129154046 4 0 0.0 2.0 0.00 0.00 0.00 82 1024.0
20230129153545 4 0 0.0 2.0 0.00 0.00 0.00 82 1024.0
20230129153049 4 0 0.0 2.0 0.00 0.00 0.00 82 1024.0
20230129152547 4 322 0.0 1.0 0.00 0.00 0.00 82 1024.0
20230129152047 4 0 0.0 2.0 0.00 0.00 0.00 82 1024.0
20230129151553 4 0 0.0 2.0 0.00 0.00 0.00 82 1024.0
20230129151046 4 0 0.0 1.0 0.00 0.00 0.00 82 1023.9
20230129150547 4 0 0.0 2.0 0.00 0.00 0.00 83 1023.9
20230129150054 4 0 0.0 3.0 0.00 0.00 0.00 83 1023.9
20230129145551 4 0 0.0 5.0 0.00 0.00 0.00 82 1023.8
20230129145046 4 0 0.0 5.0 0.00 0.00 0.00 82 1023.9
20230129144600 4 0 0.0 3.0 0.00 0.00 0.00 82 1023.9
20230129144046 4 0 0.0 5.0 0.00 0.00 0.00 82 1023.7
20230129143546 4 58 0.0 5.0 0.00 0.00 0.00 82 1023.7
20230129143049 5 0 0.0 2.0 0.00 0.00 0.00 82 1023.6
20230129142545 5 0 0.0 4.0 0.00 0.00 0.00 82 1023.5
20230129142045 5 0 0.0 4.0 0.00 0.00 0.00 83 1023.5
20230129141551 5 49 0.0 6.0 0.00 0.00 0.00 83 1023.6
20230129141045 5 0 0.0 6.0 0.00 0.00 0.00 82 1023.5
20230129140543 5 0 0.0 2.0 0.00 0.00 0.00 82 1023.4
20230129140053 5 0 0.0 3.0 0.00 0.00 0.00 83 1023.2
20230129135545 5 0 0.0 3.0 0.00 0.00 0.00 83 1023.1
20230129135047 5 0 0.0 2.0 0.00 0.00 0.00 83 1023.1
20230129134555 6 0 0.0 2.0 0.00 0.00 0.00 83 1023.0
20230129134047 6 19 0.0 4.0 0.00 0.00 0.00 83 1023.0
20230129133544 6 0 0.0 4.0 0.00 0.00 0.00 83 1023.0
20230129133048 6 57 0.0 2.0 0.00 0.00 0.00 83 1023.0
20230129132547 6 0 0.0 1.0 0.00 0.00 0.00 83 1022.9
20230129132045 6 0 0.0 1.0 0.00 0.00 0.00 83 1022.8
20230129131600 6 0 0.0 2.0 0.00 0.00 0.00 83 1022.8
20230129131045 6 0 0.0 4.0 0.00 0.00 0.00 83 1022.8
20230129130544 6 53 1.0 4.0 0.00 0.00 0.00 83 1022.8
20230129130102 7 59 0.0 3.0 0.00 0.00 0.00 83 1022.8
20230129125544 7 0 0.0 4.0 0.00 0.00 0.00 83 1022.7
20230129125044 7 0 0.0 4.0 0.00 0.00 0.00 83 1022.7
20230129124549 7 42 0.0 4.0 0.00 0.00 0.00 83 1022.8
20230129124043 7 0 0.0 1.0 0.00 0.00 0.00 83 1022.8
20230129123546 7 0 0.0 1.0 0.00 0.00 0.00 83 1022.8
20230129123057 7 0 0.0 1.0 0.00 0.00 0.00 83 1022.6
20230129122544 7 0 0.0 1.0 0.00 0.00 0.00 83 1022.6
20230129122049 8 0 0.0 2.0 0.00 0.00 0.00 83 1022.6
20230129121553 8 0 0.0 2.0 0.00 0.00 0.00 83 1022.8
20230129121048 8 360 0.0 1.0 0.00 0.00 0.00 83 1022.8
20230129120543 8 0 0.0 1.0 0.00 0.00 0.00 83 1022.6
20230129120053 8 0 0.0 2.0 0.00 0.00 0.00 83 1022.8
20230129115547 8 0 0.0 2.0 0.00 0.00 0.00 83 1022.7
20230129115044 8 0 0.0 1.0 0.00 0.00 0.00 83 1023.0
20230129114554 8 0 0.0 1.0 0.00 0.00 0.00 83 1023.0
20230129114049 8 0 0.0 1.0 0.00 0.00 0.00 83 1022.9
20230129113545 8 0 0.0 2.0 0.00 0.00 0.00 83 1023.0
20230129113049 8 0 0.0 2.0 0.00 0.00 0.00 83 1022.8
20230129112543 8 0 0.0 2.0 0.00 0.00 0.00 83 1022.8
20230129112047 8 0 0.0 0.0 0.00 0.00 0.00 83 1022.8
20230129111559 8 0 0.0 0.0 0.00 0.00 0.00 83 1022.8
20230129111042 8 0 0.0 0.0 0.00 0.00 0.00 83 1022.7
20230129110545 8 0 0.0 0.0 0.00 0.00 0.00 83 1022.6
20230129110049 9 0 0.0 0.0 0.00 0.00 0.00 83 1022.5
20230129105544 9 0 0.0 0.0 0.00 0.00 0.00 83 1022.6
20230129105045 9 0 0.0 0.0 0.00 0.00 0.00 84 1022.8
20230129104636 9 0 0.0 1.0 0.00 0.00 0.00 84 1022.8
20230129104047 9 0 0.0 1.0 0.00 0.00 0.00 83 1023.0
20230129103543 9 0 0.0 1.0 0.00 0.00 0.00 83 1022.9
20230129103107 9 0 0.0 1.0 0.00 0.00 0.00 84 1022.9
20230129102544 9 0 0.0 1.0 0.00 0.00 0.00 83 1023.0
20230129102045 9 0 0.0 1.0 0.00 0.00 0.00 84 1023.1
20230129101554 9 0 0.0 1.0 0.00 0.00 0.00 84 1023.0
20230129101043 9 0 0.0 2.0 0.00 0.00 0.00 84 1023.0
20230129100545 9 0 0.0 2.0 0.00 0.00 0.00 83 1022.9
20230129100059 9 0 0.0 1.0 0.00 0.00 0.00 83 1023.1
20230129095546 9 0 0.0 2.0 0.00 0.00 0.00 83 1023.0
20230129095046 9 0 0.0 2.0 0.00 0.00 0.00 83 1023.0
20230129094608 9 0 0.0 1.0 0.00 0.00 0.00 83 1023.2
20230129094047 9 0 0.0 1.0 0.00 0.00 0.00 83 1023.1
20230129093546 9 0 0.0 1.0 0.00 0.00 0.00 84 1023.2
20230129093057 9 0 0.0 1.0 0.00 0.00 0.00 83 1023.5
20230129092551 9 0 0.0 1.0 0.00 0.00 0.00 84 1023.4
20230129092046 9 0 0.0 2.0 0.00 0.00 0.00 84 1023.4
20230129091553 9 0 0.0 2.0 0.00 0.00 0.00 83 1023.7
20230129091047 9 0 0.0 3.0 0.00 0.00 0.00 84 1023.6
20230129090546 9 0 0.0 3.0 0.00 0.00 0.00 84 1023.7
20230129090054 9 0 0.0 1.0 0.00 0.00 0.00 84 1023.6
20230129085545 9 0 0.0 1.0 0.00 0.00 0.00 84 1023.8
20230129085045 9 0 0.0 1.0 0.00 0.00 0.00 84 1023.7
20230129084556 9 0 0.0 1.0 0.00 0.00 0.00 84 1023.7
20230129084044 9 0 0.0 1.0 0.00 0.00 0.00 84 1023.8
20230129083545 9 0 0.0 0.0 0.00 0.00 0.00 84 1023.9
20230129083046 10 0 0.0 0.0 0.00 0.00 0.00 84 1023.8
20230129082543 10 0 0.0 1.0 0.00 0.00 0.00 84 1023.8
20230129082046 10 0 0.0 1.0 0.00 0.00 0.00 84 1023.7
20230129081554 10 0 0.0 0.0 0.00 0.00 0.00 84 1023.9
20230129081044 10 0 0.0 2.0 0.00 0.00 0.00 84 1023.9
20230129080543 10 0 0.0 2.0 0.00 0.00 0.00 84 1023.9
20230129080049 10 87 0.0 1.0 0.00 0.00 0.00 84 1024.0
20230129075543 10 0 0.0 1.0 0.00 0.00 0.00 84 1024.0
20230129075046 10 0 0.0 1.0 0.00 0.00 0.00 84 1024.0
20230129074551 10 0 0.0 1.0 0.00 0.00 0.00 84 1024.0
20230129074044 10 0 0.0 2.0 0.00 0.00 0.00 84 1024.2
20230129073545 10 0 0.0 2.0 0.00 0.00 0.00 84 1024.1
20230129073058 10 0 0.0 1.0 0.00 0.00 0.00 84 1024.3
20230129072546 10 0 0.0 1.0 0.00 0.00 0.00 84 1024.2
20230129072046 10 0 0.0 2.0 0.00 0.00 0.00 84 1024.2
20230129071549 11 0 0.0 2.0 0.00 0.00 0.00 84 1024.3
20230129071049 11 0 0.0 1.0 0.00 0.00 0.00 84 1024.3
20230129070544 11 0 0.0 2.0 0.00 0.00 0.00 84 1024.2
20230129070050 11 0 0.0 2.0 0.00 0.00 0.00 84 1024.4
20230129065543 11 0 0.0 1.0 0.00 0.00 0.00 84 1024.4
20230129065043 11 0 0.0 1.0 0.00 0.00 0.00 84 1024.4
20230129064551 11 0 0.0 1.0 0.00 0.00 0.00 84 1024.4
20230129064043 11 0 0.0 1.0 0.00 0.00 0.00 84 1024.4
20230129063543 11 0 0.0 1.0 0.00 0.00 0.00 84 1024.6
20230129063049 11 0 0.0 4.0 0.00 0.00 0.00 84 1024.6
20230129062543 11 0 0.0 4.0 0.00 0.00 0.00 84 1024.6
20230129062043 12 57 0.0 2.0 0.00 0.00 0.00 84 1024.8
20230129061551 12 0 0.0 2.0 0.00 0.00 0.00 84 1024.8
20230129061042 12 0 0.0 3.0 0.00 0.00 0.00 84 1024.9
20230129060545 12 0 0.0 3.0 0.00 0.00 0.00 84 1024.8
20230129060102 12 0 0.0 3.0 0.00 0.00 0.00 85 1025.1
20230129055546 12 0 1.0 3.0 0.00 0.00 0.00 85 1025.0
20230129055045 12 0 0.0 1.0 0.00 0.00 0.00 85 1025.2
20230129054600 12 0 0.0 2.0 0.00 0.00 0.00 85 1025.3
20230129054045 12 0 0.0 2.0 0.00 0.00 0.00 85 1025.2
20230129053543 12 0 0.0 6.0 0.00 0.00 0.00 85 1025.3
20230129053051 12 0 0.0 6.0 0.00 0.00 0.00 84 1025.2
20230129052544 13 46 0.0 5.0 0.00 0.00 0.00 85 1025.3
20230129052043 13 0 0.0 4.0 0.00 0.00 0.00 85 1025.2
20230129051553 13 0 0.0 4.0 0.00 0.00 0.00 85 1025.2
20230129051043 13 0 0.0 5.0 0.00 0.00 0.00 85 1025.3
20230129050543 13 0 0.0 7.0 0.00 0.00 0.00 85 1025.3
20230129050054 13 46 0.0 7.0 0.00 0.00 0.00 85 1025.2
20230129045546 13 0 0.0 5.0 0.00 0.00 0.00 85 1025.2
20230129045046 14 51 0.0 5.0 0.00 0.00 0.00 85 1025.1
20230129044556 14 0 0.0 5.0 0.00 0.00 0.00 85 1025.0
20230129044044 14 34 0.0 2.0 0.00 0.00 0.00 85 1025.0
20230129043544 14 0 0.0 3.0 0.00 0.00 0.00 85 1025.2
20230129043047 14 0 0.0 5.0 0.00 0.00 0.00 85 1025.2
20230129042544 15 42 0.0 5.0 0.00 0.00 0.00 85 1025.0
20230129042047 15 54 0.0 4.0 0.00 0.00 0.00 85 1024.9
20230129041553 15 51 0.0 5.0 0.00 0.00 0.00 85 1025.0
20230129041048 15 0 1.0 5.0 0.00 0.00 0.00 85 1024.8
20230129040547 15 39 0.0 5.0 0.00 0.00 0.00 85 1024.9
20230129040056 16 0 0.0 3.0 0.00 0.00 0.00 85 1024.8
20230129035545 16 0 0.0 3.0 0.00 0.00 0.00 85 1024.6
20230129035045 16 43 0.0 2.0 0.00 0.00 0.00 85 1024.6
20230129034554 16 13 0.0 6.0 0.00 0.00 0.00 85 1024.8
20230129034046 16 38 1.0 6.0 0.00 0.00 0.00 85 1024.7
20230129033544 16 52 0.0 10.0 0.00 0.00 0.00 85 1024.7
20230129033110 17 21 0.0 10.0 0.00 0.00 0.00 85 1024.6
20230129032545 17 0 0.0 8.0 0.00 0.00 0.00 85 1024.4
20230129032045 17 0 1.0 8.0 0.00 0.00 0.00 85 1024.4
20230129031554 17 0 0.0 8.0 0.00 0.00 0.00 84 1024.2
20230129031045 18 0 1.0 8.0 0.00 0.00 0.00 84 1024.2
20230129030548 18 0 0.0 9.0 0.00 0.00 0.00 85 1024.2
20230129030059 19 0 0.0 9.0 0.00 0.00 0.00 85 1024.0
20230129025550 0 0.0 0.0 0.00 0.00 0.00 1023.8
20230129025048 0 0.0 0.0 0.00 0.00 0.00 1023.7
20230129024555 19 0.0 0.0 0.00 0.00 0.00 85 1023.5
20230129024047 19 0 0.0 6.0 0.00 0.00 0.00 84 1023.4
20230129023547 19 360 1.0 5.0 0.00 0.00 0.00 84 1023.3
20230129023054 20 360 1.0 5.0 0.00 0.00 0.00 84 1023.1
20230129022545 20 360 0.0 4.0 0.00 0.00 0.00 84 1023.0
20230129022045 20 360 0.0 4.0 0.00 0.00 0.00 84 1022.8
20230129021550 20 0 0.0 4.0 0.00 0.00 0.00 84 1022.8
20230129021045 20 360 0.0 4.0 0.00 0.00 0.00 84 1022.6
20230129020545 21 360 1.0 5.0 0.00 0.00 0.00 83 1022.5
20230129020056 21 0 0.0 5.0 0.00 0.00 0.00 83 1022.2
20230129015551 21 0 0.0 3.0 0.00 0.00 0.00 84 1022.2
20230129015047 22 360 0.0 4.0 0.00 0.00 0.00 84 1022.0
20230129014551 22 0 1.0 4.0 0.00 0.00 0.00 83 1022.0
20230129014047 22 0 0.0 4.0 0.00 0.00 0.00 83 1021.9
20230129013547 22 360 0.0 3.0 0.00 0.00 0.00 83 1021.8
20230129013051 22 360 0.0 3.0 0.00 0.00 0.00 83 1021.8
20230129012547 22 0 0.0 2.0 0.00 0.00 0.00 83 1021.5
20230129012045 22 0 0.0 2.0 0.00 0.00 0.00 83 1021.5
20230129011552 22 0 0.0 2.0 0.00 0.00 0.00 83 1021.5
20230129011046 23 0 0.0 3.0 0.00 0.00 0.00 82 1021.4
20230129010547 23 360 0.0 5.0 0.00 0.00 0.00 82 1021.3
20230129010051 23 360 1.0 5.0 0.00 0.00 0.00 82 1021.2
20230129005546 23 0 0.0 4.0 0.00 0.00 0.00 82 1021.1
20230129005047 23 0 0.0 5.0 0.00 0.00 0.00 82 1020.9
20230129004558 23 0 1.0 5.0 0.00 0.00 0.00 81 1020.8
20230129004048 23 360 0.0 4.0 0.00 0.00 0.00 81 1020.6
20230129003547 23 360 1.0 5.0 0.00 0.00 0.00 80 1020.5
20230129003057 24 0 1.0 5.0 0.00 0.00 0.00 80 1020.2
20230129002547 24 360 1.0 4.0 0.00 0.00 0.00 80 1019.9
20230129002045 24 360 1.0 3.0 0.00 0.00 0.00 79 1020.0
20230129001601 25 360 0.0 4.0 0.00 0.00 0.00 79 1019.8
20230129001045 25 360 1.0 4.0 0.00 0.00 0.00 78 1019.7
20230129000548 25 0 1.0 4.0 0.00 0.00 0.00 78 1019.6
20230129000053 26 360 1.0 5.0 0.00 0.00 0.00 77 1019.2
20230128235544 26 0 1.0 5.0 0.00 0.00 0.00 77 1019.2
20230128235047 26 360 2.0 5.0 0.00 0.00 0.00 76 1019.1
20230128234559 27 360 0.0 5.0 0.00 0.00 0.00 76 1018.9
20230128234044 27 360 1.0 5.0 0.00 0.00 0.00 75 1018.8
20230128233545 27 0 2.0 5.0 0.00 0.00 0.00 75 1018.7
20230128233059 28 360 1.0 5.0 0.00 0.00 0.00 74 1018.7
20230128232547 28 360 1.0 4.0 0.00 0.00 0.00 73 1018.6
20230128232047 29 360 0.0 4.0 0.00 0.00 0.00 73 1018.6
20230128231548 29 360 0.0 3.0 0.00 0.00 0.00 72 1018.6
20230128231047 29 360 0.0 3.0 0.00 0.00 0.00 72 1018.6
20230128230547 29 360 0.0 3.0 0.00 0.00 0.00 72 1018.4
20230128230100 29 360 0.0 3.0 0.00 0.00 0.00 71 1018.2
20230128225550 30 360 1.0 5.0 0.00 0.00 0.00 71 1018.1
20230128225047 30 0 1.0 5.0 0.00 0.00 0.00 71 1018.0
20230128224556 30 0 0.0 3.0 0.00 0.00 0.00 71 1018.0
20230128224045 30 360 1.0 3.0 0.00 0.00 0.00 71 1017.8
20230128223545 30 0 0.0 4.0 0.00 0.00 0.00 71 1017.8
20230128223102 30 0 1.0 4.0 0.00 0.00 0.00 70 1017.8
20230128222545 31 0 1.0 4.0 0.00 0.00 0.00 70 1017.8
20230128222044 31 360 1.0 3.0 0.00 0.00 0.00 70 1017.6
20230128221601 31 0 0.0 5.0 0.00 0.00 0.00 70 1017.6
20230128221045 31 0 1.0 5.0 0.00 0.00 0.00 70 1017.6
20230128220544 31 360 0.0 4.0 0.00 0.00 0.00 71 1017.5
20230128220051 31 360 1.0 4.0 0.00 0.00 0.00 71 1017.4
20230128215543 31 0 1.0 4.0 0.00 0.00 0.00 70 1017.3
20230128215043 31 360 0.0 6.0 0.00 0.00 0.00 70 1017.2
20230128214555 31 360 1.0 6.0 0.00 0.00 0.00 70 1017.1
20230128214043 31 360 1.0 4.0 0.00 0.00 0.00 71 1017.1
20230128213543 31 360 0.0 3.0 0.00 0.00 0.00 71 1017.2
20230128213053 31 0 0.0 4.0 0.00 0.00 0.00 70 1017.0
20230128212546 31 360 1.0 6.0 0.00 0.00 0.00 69 1016.8
20230128212043 31 0 1.0 6.0 0.00 0.00 0.00 69 1016.8
20230128211556 32 360 1.0 5.0 0.00 0.00 0.00 69 1016.8
20230128211044 32 360 1.0 5.0 0.00 0.00 0.00 69 1016.7
20230128210547 32 360 1.0 5.0 0.00 0.00 0.00 69 1016.6
20230128210102 32 360 1.0 5.0 0.00 0.00 0.00 69 1016.5
20230128205543 32 360 1.0 5.0 0.00 0.00 0.00 68 1016.5
20230128205043 33 360 1.0 5.0 0.00 0.00 0.00 67 1016.6
20230128204559 33 360 0.0 4.0 0.00 0.00 0.00 67 1016.5
20230128204044 32 360 0.0 3.0 0.00 0.00 0.00 67 1016.4
20230128203543 32 0 0.0 3.0 0.00 0.00 0.00 68 1016.5
20230128203053 32 360 1.0 3.0 0.00 0.00 0.00 68 1016.7
20230128202546 32 0 0.0 3.0 0.00 0.00 0.00 68 1016.8
20230128202043 32 360 0.0 8.0 0.00 0.00 0.00 69 1016.9
20230128201550 31 360 2.0 8.0 0.00 0.00 0.00 70 1016.9
20230128201043 31 360 1.0 8.0 0.00 0.00 0.00 70 1016.8
20230128200543 31 360 1.0 5.0 0.00 0.00 0.00 71 1016.9
20230128200054 31 360 1.0 6.0 0.00 0.00 0.00 70 1017.1
20230128195542 31 360 2.0 6.0 0.00 0.00 0.00 70 1017.1
20230128195045 31 0 1.0 4.0 0.00 0.00 0.00 72 1017.3
20230128194557 30 0 2.0 4.0 0.00 0.00 0.00 71 1017.3
20230128194043 30 0 1.0 4.0 0.00 0.00 0.00 71 1017.3
20230128193542 30 360 1.0 6.0 0.00 0.00 0.00 70 1017.4
20230128193059 30 360 1.0 6.0 0.00 0.00 0.00 70 1017.5
20230128192543 30 360 1.0 5.0 0.00 0.00 0.00 70 1017.6
20230128192043 29 360 0.0 3.0 0.00 0.00 0.00 70 1017.7
20230128191546 29 360 0.0 4.0 0.00 0.00 0.00 69 1017.7
20230128191047 30 360 1.0 5.0 0.00 0.00 0.00 68 1017.8
20230128190547 30 360 1.0 5.0 0.00 0.00 0.00 68 1017.9
20230128190055 30 360 2.0 5.0 0.00 0.00 0.00 68 1017.9
20230128185550 30 360 1.0 5.0 0.00 0.00 0.00 68 1017.8
20230128185047 30 360 1.0 4.0 0.00 0.00 0.00 68 1018.1
20230128184554 30 360 1.0 5.0 0.00 0.00 0.00 68 1018.1
20230128184048 30 360 2.0 6.0 0.00 0.00 0.00 68 1018.3
20230128183546 30 360 1.0 6.0 0.00 0.00 0.00 68 1018.3
20230128183123 31 360 1.0 6.0 0.00 0.00 0.00 67 1018.2
20230128182545 31 360 2.0 5.0 0.00 0.00 0.00 67 1018.5
20230128182047 31 360 0.0 6.0 0.00 0.00 0.00 68 1018.4
20230128181555 32 360 2.0 8.0 0.00 0.00 0.00 67 1018.4
20230128181047 31 360 1.0 8.0 0.00 0.00 0.00 69 1018.6
20230128180547 31 360 2.0 6.0 0.00 0.00 0.00 68 1018.5
20230128180048 31 360 2.0 6.0 0.00 0.00 0.00 67 1018.7
20230128175547 31 360 2.0 5.0 0.00 0.00 0.00 67 1018.6
20230128175047 31 360 1.0 4.0 0.00 0.00 0.00 68 1018.7
20230128174550 31 360 1.0 4.0 0.00 0.00 0.00 67 1018.8
20230128174047 31 360 1.0 5.0 0.00 0.00 0.00 66 1018.8
20230128173550 31 360 1.0 5.0 0.00 0.00 0.00 65 1018.9
20230128173052 32 360 1.0 4.0 0.00 0.00 0.00 65 1019.1
20230128172547 32 360 0.0 3.0 0.00 0.00 0.00 65 1018.9
20230128172047 31 360 0.0 3.0 0.00 0.00 0.00 67 1019.1
20230128171556 31 360 1.0 3.0 0.00 0.00 0.00 68 1019.1
20230128171047 30 0 0.0 4.0 0.00 0.00 0.00 68 1019.1
20230128170548 30 360 0.0 4.0 0.00 0.00 0.00 67 1019.3
20230128170059 30 360 0.0 2.0 0.00 0.00 0.00 69 1019.2
20230128165548 30 0 0.0 2.0 0.00 0.00 0.00 69 1019.5